Location: Okie-Tex Star Party
(36.8978°N, 102.9520°W)
Time: 05:51:08
(UTC-05:00)

Daily predictions for brighter satellites

Satellite Brightness Start Highest point End
(mag) Time Altitude Azimuth Time Altitude Azimuth Time Altitude Azimuth
ATLAS CENTAUR R/B 3.7 00:09:13 15° NE 00:09:13 15° NE 00:10:00 10° NNE
Meteor 1-14 Rocket 4.2 00:09:23 83° ESE 00:09:29 84° E 00:15:21 10° N
Cosmos 494 Rocket 4.0 00:04:16 10° NNW 00:09:05 76° NNW 00:09:05 76° NNW
H-2A R/B 3.1 00:14:15 40° N 00:14:15 40° N 00:16:58 10° NNW
SL-19 R/B 4.4 00:07:04 10° NNE 00:13:09 84° WNW 00:13:59 68° SSW
Cosmos 1092 Rocket 4.3 00:11:57 46° SW 00:13:30 59° W 00:19:33 10° N
Cosmos 2227 Rocket 3.7 00:16:32 10° N 00:21:07 25° ENE 00:21:18 25° ENE
Cosmos 1627 Rocket 4.4 00:20:35 73° SW 00:21:08 80° W 00:27:29 10° N
CZ-2C R/B 4.2 00:20:47 10° NE 00:23:17 23° ENE 00:23:17 23° ENE
Cosmos 2219 3.3 00:20:09 10° NNW 00:25:31 74° NNE 00:25:31 74° NNE
CZ-4B R/B 4.0 00:22:19 10° NNE 00:26:01 51° NNE 00:26:01 51° NNE
Cosmos 1553 Rocket 4.2 00:25:02 10° N 00:30:59 59° ENE 00:30:59 59° ENE
Meteor 1-18 Rocket 4.5 00:41:20 10° NNW 00:46:24 66° NW 00:46:24 66° NW
Cosmos 2266 Rocket 4.4 01:01:30 55° NE 01:01:30 55° NE 01:06:31 10° NNE
Terra 4.1 01:07:35 16° W 01:07:35 16° W 01:09:42 10° NW
Cosmos 1697 Rocket 4.2 01:14:58 27° NE 01:14:58 27° NE 01:17:43 10° NE
Cosmos 2297 Rocket 3.0 01:10:34 10° NNW 01:15:01 48° NNE 01:15:01 48° NNE
CZ-4C R/B 4.3 01:28:08 10° NNW 01:34:21 31° NE 01:38:04 21° E
Cosmos 2278 4.5 01:40:34 49° NNW 01:40:34 49° NNW 01:45:03 10° NNE
CZ-2C R/B 4.4 01:41:46 33° NW 01:41:46 33° NW 01:44:41 10° NNW
Cosmos 2082 4.5 01:34:20 10° NNW 01:38:28 50° NNW 01:38:28 50° NNW
USA 229 DEB 3.8 01:42:08 67° NE 01:42:08 67° NE 01:48:03 10° NNE
USA 229 3.8 01:42:16 67° NE 01:42:16 67° NE 01:48:09 10° NNE
ATLAS CENTAUR R/B 4.4 01:45:26 10° NW 01:45:27 10° NW 01:45:37 10° NW
Cosmos 2227 Rocket 3.6 02:00:01 10° NW 02:03:06 30° WNW 02:03:06 30° WNW
CZ-2C R/B 4.2 02:01:13 10° NNW 02:04:48 26° NW 02:04:48 26° NW
Mayak 1.2 02:11:44 10° N 02:13:19 21° NNW 02:13:19 21° NNW
Cosmos 1980 Rocket 2.9 02:30:02 50° N 02:30:02 50° N 02:34:14 10° NNE
NOSS 3-1 (C) 3.8 02:32:23 57° NNE 02:32:23 57° NNE 02:37:25 10° NNE
Cosmos 1745 Rocket 4.2 02:42:56 66° N 02:42:56 66° N 02:48:12 10° N
Cosmos 1697 Rocket 4.3 02:56:41 25° NW 02:56:41 25° NW 03:01:10 10° N
USA 234 3.1 03:04:15 10° NE 03:10:51 89° NW 03:10:58 87° WSW
SL-16 R/B 2.5 03:12:15 65° NNE 03:12:15 65° NNE 03:17:03 10° NNE
Cosmos 2322 Rocket 2.4 03:20:24 69° N 03:20:24 69° N 03:25:26 10° NNE
SL-08 R/B 4.3 03:22:22 40° ENE 03:22:22 40° ENE 03:26:19 10° N
CZ-4C R/B 2.9 03:16:07 10° NW 03:23:10 65° WSW 03:23:10 65° WSW
ADEOS Rocket 3.0 03:22:35 10° NNE 03:28:41 63° E 03:28:47 62° ESE
ARIANE 5 R/B 4.0 03:26:55 10° NE 03:31:14 27° E 03:31:41 26° ESE
ATLAS 2AS CENTAUR R/B 3.7 03:31:06 37° SE 03:32:38 40° ESE 03:39:58 10° NE
COBE Rocket 4.3 03:28:15 10° NNE 03:32:55 65° ENE 03:32:55 65° ENE
Resurs 1-4 Rocket 3.1 03:31:21 10° NNE 03:36:11 35° E 03:36:32 35° ESE
NOSS 3-1 (A) 4.0 03:37:25 42° WNW 03:37:59 43° NW 03:44:05 10° NNE
Cosmos 1331 Rocket 4.2 03:38:48 68° NNE 03:38:48 68° NNE 03:43:18 10° NNE
IRS-1C 4.4 03:34:13 10° NNE 03:39:27 58° E 03:39:27 58° E
AQUA 4.2 03:37:47 10° NNE 03:41:53 61° NE 03:41:53 61° NE
SL-8 R/B 4.4 03:43:49 51° ENE 03:43:49 51° ENE 03:47:28 10° ENE
NOSS 2-3 (E) 4.4 03:45:48 50° E 03:45:48 50° E 03:50:14 10° NE
Cosmos 1606 Rocket 4.2 03:52:34 53° ENE 03:52:34 53° ENE 03:56:23 10° NNE
Cosmos 1709 Rocket 4.3 03:52:47 47° WNW 03:52:47 47° WNW 03:58:36 10° N
CBERS-1 4.0 03:50:16 10° N 03:55:08 73° NW 03:55:08 73° NW
MOS 1 Rocket 4.5 03:53:20 10° NNE 03:57:16 30° E 03:57:37 30° ESE
BREEZE-M DEB (TANK) 4.3 03:57:13 28° ESE 03:57:35 28° ESE 04:05:20 10° ENE
UNK 4.3 03:57:27 51° E 03:57:58 54° ENE 04:02:29 10° N
NPP 3.7 03:53:23 10° N 03:58:43 65° WNW 03:58:43 65° WNW
CZ-2D R/B 2.4 03:54:25 10° NNE 03:59:51 60° E 04:00:39 54° SE
DELTA 2 R/B (1) 3.4 04:00:35 79° SE 04:00:35 79° SE 04:06:03 10° ENE
IRS-P3 4.4 03:59:22 10° N 04:04:35 53° WNW 04:04:36 53° WNW
Cosmos 2263 Rocket 2.0 04:00:48 10° NNW 04:06:29 72° WSW 04:06:36 72° WSW
UNKNOWN OBJECT B 4.5 04:05:59 10° NE 04:09:15 26° E 04:09:32 26° ESE
ISS -1.6 04:07:44 18° NNW 04:09:20 26° NNE 04:12:07 10° E
CBERS 1 LM4 rocket 4.4 04:05:40 10° NNE 04:10:26 69° ESE 04:10:49 66° SE
Cosmos 44 Rocket 3.3 04:06:23 10° NNW 04:11:07 74° ENE 04:11:52 60° ESE
Cosmos 2360 Rocket 2.0 04:10:47 69° WSW 04:11:23 77° WNW 04:17:03 10° NNE
SL-16 R/B 2.5 04:11:56 41° SSE 04:14:20 87° ENE 04:20:38 10° NNW
BREEZE M DEB (TANK) 4.3 04:14:41 26° NNE 04:15:02 27° NE 04:18:24 10° E
Cosmos 2219 Rocket 3.8 04:12:53 20° SE 04:15:18 28° ESE 04:20:01 10° NE
Iridium 4 Rocket 3.8 04:15:39 48° SSE 04:17:21 77° E 04:23:02 10° N
Cosmos 1825 Rocket 3.8 04:13:12 10° NNW 04:16:56 60° NW 04:16:56 60° NW
COSMOS 2428 3.3 04:16:07 40° SSE 04:17:42 51° ESE 04:23:15 10° NNE
NOSS 2-3 (C) 3.7 04:18:05 72° W 04:18:20 74° WNW 04:23:39 10° NNE
Cosmos 1758 Rocket 3.5 04:14:59 10° N 04:19:13 82° NE 04:19:13 82° NE
Cosmos 2327 Rocket 4.5 04:21:20 52° SSW 04:22:58 75° W 04:29:25 10° N
Cosmos 1844 Rocket 4.3 04:21:23 10° N 04:26:34 35° ENE 04:31:41 10° SE
Cosmos 2228 2.9 04:27:01 73° SE 04:27:16 76° E 04:31:33 10° N
Cosmos 2184 Rocket 4.0 04:27:12 50° SW 04:28:35 62° W 04:34:42 10° N
BREEZE-M DEB (TANK) 4.1 04:30:00 35° SSE 04:30:51 39° ESE 04:39:45 10° ENE
Cosmos 1302 Rocket 4.3 04:34:20 46° W 04:35:07 50° WNW 04:40:17 10° N
Cosmos 2333 Rocket 3.5 04:33:28 20° SSE 04:36:38 34° ESE 04:41:42 10° NE
Cosmos 2322 3.9 04:36:07 46° WSW 04:37:23 56° WNW 04:42:58 10° NNE
Meteor 1-4 Rocket 4.2 04:39:10 24° NW 04:39:10 24° NW 04:41:11 10° NNW
ADEOS 3.5 04:35:38 10° N 04:40:51 72° WNW 04:42:15 48° SW
IRS-1D 3.7 04:39:33 10° N 04:44:21 50° WNW 04:45:17 44° WSW
Spot 4 Rocket 4.4 04:40:47 10° N 04:45:44 47° WNW 04:46:50 41° WSW
Meteor 2-5 Rocket 3.7 04:41:17 10° N 04:46:59 89° E 04:50:51 22° S
Cosmos 1707 2.6 04:44:01 10° NNW 04:47:51 69° W 04:47:53 69° W
Cosmos 1378 2.9 04:46:22 10° N 04:50:06 83° W 04:50:27 71° SSW
ERBS 4.5 04:50:31 17° SE 04:51:06 18° ESE 04:53:32 10° ENE
Meteor 1-24 Rocket 4.2 04:45:49 10° N 04:51:10 57° E 04:56:39 10° SSE
Cosmos 1766 3.8 04:49:51 35° SSE 04:51:11 56° E 04:55:02 10° NNE
Cosmos 2058 Rocket 3.4 04:52:56 43° WSW 04:53:28 46° W 04:57:49 10° N
Cosmos 972 Rocket 3.8 04:52:03 45° SSW 04:53:31 74° WNW 04:58:30 10° NNE
Cosmos 1503 Rocket 4.1 04:49:26 10° NNW 04:54:46 77° ENE 05:00:06 10° SSE
Cosmos 1953 Rocket 4.2 04:51:44 10° NNW 04:55:50 36° W 04:55:50 36° W
SL-16 R/B 4.2 04:54:07 12° WNW 04:56:11 14° NW 04:59:00 10° NNW
Nadezhda 3 Rocket 3.9 04:54:35 10° N 05:00:50 78° W 05:05:51 17° S
OAO 3 Rocket 3.1 04:59:40 38° WSW 05:01:27 72° S 05:06:19 10° E
Cosmos 962 Rocket 4.4 04:59:40 25° S 05:03:26 85° W 05:09:35 10° N
Cosmos 1812 Rocket 3.9 05:01:27 23° SSE 05:04:01 62° E 05:08:19 10° NNE
Cosmos 2322 Rocket 4.4 05:02:38 10° WNW 05:04:39 12° NW 05:06:39 10° NNW
Cosmos 44 3.8 05:02:08 10° NW 05:05:27 32° W 05:05:27 32° W
Cosmos 2333 4.3 05:03:53 33° SW 05:06:31 67° WNW 05:12:11 10° NNE
Abrixas rocket 3.6 05:07:05 26° SSE 05:07:34 27° SE 05:10:26 10° ENE
Cosmos 1184 Rocket 3.0 05:05:49 10° NNW 05:08:59 49° W 05:08:59 49° W
ARIANE 5 R/B 3.4 05:05:46 10° N 05:10:19 33° WNW 05:12:02 26° WSW
Intercosmos 24 3.9 05:10:01 38° SSW 05:11:23 68° W 05:16:08 10° N
Cosmos 1992 Rocket 3.9 05:09:51 30° SSW 05:12:26 73° WNW 05:17:39 10° NNE
USA 161 2.5 05:10:38 15° SSE 05:12:58 48° ENE 05:15:49 10° N
ADEOS II 2.9 05:08:37 10° NNE 05:13:42 48° E 05:18:45 10° S
Okean O Rocket 3.3 05:10:29 10° NE 05:14:26 31° E 05:18:22 10° SSE
Resurs 1-4 Rocket 3.3 05:11:32 10° NNW 05:15:48 26° WNW 05:17:36 21° W
Lacrosse 5 3.8 05:12:17 10° S 05:16:07 22° ESE 05:20:00 10° ENE
Cosmos 1844 4.0 05:12:17 10° NNW 05:17:54 71° ENE 05:23:33 10° SSE
MOZ.5/SAFIR/RUBIN 5/SL-8 4.1 05:20:05 26° SSW 05:22:13 42° W 05:26:37 10° NNW
Intelsat 5-1 Rocket 3.9 05:20:48 20° SSW 05:22:34 23° SSE 05:29:40 10° ESE
NOSS 0 Rocket 4.1 05:17:51 17° SSW 05:22:39 72° ESE 05:28:50 10° NNE
ATLAS 2AS CENTAUR R/B 3.6 05:18:33 21° WSW 05:23:33 47° NW 05:31:20 10° NNE
MOS 1-B 4.4 05:17:50 10° NNE 05:23:41 82° ESE 05:28:57 13° SSW
BREEZE-M DEB (TANK) 4.1 05:06:01 10° NW 05:24:59 61° SW 05:29:33 10° SSE
Cosmos 1805 3.3 05:22:30 19° S 05:25:10 82° E 05:29:07 10° N
Cosmos 389 Rocket 3.0 05:25:45 32° WSW 05:26:47 41° WNW 05:30:12 10° N
Cosmos 1340 Rocket 3.0 05:24:04 10° NNW 05:27:53 47° W 05:30:02 23° SSW
CZ-2D R/B 4.3 05:25:49 10° N 05:29:43 35° WNW 05:31:32 24° WSW
NOSS 3-4 (A) 4.3 05:25:33 11° S 05:31:20 47° ESE 05:37:26 10° NE
NOSS 3-4 (C) 4.3 05:25:36 11° S 05:31:25 47° ESE 05:37:31 10° NE
Aureole 2 Rocket 3.3 05:31:06 25° SW 05:33:05 44° WNW 05:37:00 10° N
Cosmos 1607 4.2 05:28:58 10° NW 05:35:11 51° WSW 05:41:22 10° S
Cosmos 1271 Rocket 4.2 05:34:42 20° W 05:35:48 22° WNW 05:38:56 10° NNW
Cosmos 1356 Rocket 3.3 05:34:18 10° N 05:38:21 84° E 05:42:20 10° S
CZ-2D R/B 3.9 05:35:57 10° NNW 05:39:21 17° WNW 05:41:58 12° W
SEDSat Delta rocket 3.5 05:38:45 22° SW 05:40:48 37° S 05:44:46 10° ESE
Tiangong 1 2.8 05:42:14 14° S 05:43:30 19° SE 05:45:34 10° E
UNKNOWN OBJECT B 4.4 05:40:49 10° NNW 05:43:34 19° WNW 05:45:00 16° W
Cosmos 2366 rocket 4.0 05:37:49 10° S 05:43:59 90° W 05:50:14 10° N
ISS -3.0 05:42:53 10° WNW 05:45:47 29° SW 05:48:40 10° SSE
DELTA 2 R/B (1) 3.9 05:41:32 10° W 05:47:05 66° N 05:52:38 10° E
Lacrosse 5 rocket 2.8 05:43:24 10° NNW 05:47:15 41° NE 05:51:20 10° ESE
ATLAS 2A CENTAUR R/B 3.2 05:48:23 14° SSW 05:48:28 14° SSW 05:49:57 10° SSE
SeaSat 1 2.8 05:43:38 10° SE 05:48:32 71° ENE 05:53:27 10° NNW
Cosmos 482 Debris 4.4 05:48:29 17° S 05:49:30 26° SE 05:51:36 10° ENE
Cosmos 1758 3.3 05:48:00 11° SSW 05:51:45 64° W 05:55:46 10° N
In-Cosmos 22 4.3 05:50:03 10° NNW 05:55:07 47° W 06:00:08 10° SSW
Cosmos 2360 Rocket 4.3 05:54:53 10° WNW 05:56:19 11° NW 05:57:45 10° NW
ATLAS 3B R/B 2.6 05:49:51 10° NW 05:56:25 62° WSW 06:02:45 10° SSE
Cosmos 1953 2.4 05:54:30 10° SSW 05:58:29 62° W 06:02:28 10° N
SL-16 R/B 4.2 05:57:02 11° WSW 05:58:36 12° W 06:00:52 10° WNW
Meteor 2-15 Rocket 4.5 05:52:46 10° N 05:58:58 87° W 06:05:06 10° S
Cosmos 2219 Rocket 3.0 05:54:37 14° SW 05:59:01 37° WNW 06:04:17 10° N
Meteor 1-31 Rocket 4.4 05:56:17 10° NNE 05:59:49 35° E 06:03:22 10° SSE
PSLV R/B 3.6 05:55:57 10° N 06:00:20 76° WNW 06:04:43 10° SSW
Cosmos 1544 4.5 05:58:46 14° WSW 06:00:57 23° WNW 06:03:59 10° NNW
Cosmos 1980 3.9 05:56:34 11° SW 06:01:53 59° WNW 06:07:31 10° NNE
COSMOS 2428 4.2 05:58:09 11° WSW 06:02:15 22° NW 06:06:39 10° N
Cosmos 864 Rocket 4.5 05:56:09 10° SSW 06:02:17 68° W 06:08:24 10° N
Cosmos 2237 Rocket 2.3 05:57:59 10° SSW 06:03:28 62° WNW 06:09:03 10° NNE
Cosmos 2218 Rocket 4.2 05:58:27 10° SSW 06:04:33 54° W 06:10:46 10° N
CZ-4B R/B 3.1 06:03:11 10° N 06:06:58 51° WNW 06:10:55 10° SSW
IRS-1C Rocket 4.1 06:04:11 10° NNE 06:09:28 88° WNW 06:14:43 10° SSW
PAYLOAD B 4.3 06:04:19 10° N 06:09:54 75° WNW 06:15:29 10° SSW
Cosmos 1818 3.6 06:04:42 10° SSW 06:10:07 81° WNW 06:15:36 10° NNE
Cosmos 1844 Rocket 3.5 06:05:27 10° NW 06:10:17 30° WSW 06:15:07 10° SSW
CZ-4B R/B 3.3 06:06:47 10° N 06:12:28 81° WNW 06:18:02 10° SSW
Cosmos 1470 2.7 06:09:10 10° SSW 06:13:05 74° W 06:17:01 10° N
BREEZE-M DEB (TANK) 4.2 06:10:49 10° WNW 06:13:51 35° N 06:20:24 10° ENE
CZ-2C R/B 4.1 06:11:03 10° SSE 06:15:34 68° ENE 06:20:01 10° N
RESURS DK-1 3.6 06:13:06 10° S 06:17:00 42° ESE 06:20:56 10° NE
NOSS 5 (C) 4.5 06:14:25 10° SSW 06:18:26 86° NW 06:21:40 10° NNE
Cosmos 968 Rocket 3.6 06:14:01 10° NNW 06:19:01 50° WSW 06:23:56 10° S
USA 238 DEB 3.9 06:13:41 10° NW 06:20:34 54° WSW 06:27:29 10° S
USA 238 3.9 06:13:47 10° NW 06:20:41 55° WSW 06:27:36 10° S
Cosmos 2333 Rocket 3.2 06:15:51 10° WSW 06:20:51 31° WNW 06:25:52 10° N
ATLAS CENTAUR R/B 2.7 06:17:30 10° NNW 06:21:24 39° NE 06:23:28 10° ESE
